This is the latest recevied weather packets stored in our database for station/object KE0TNI-13. If no packets are shown the sender has not sent any weather packets the latest 10 day(s).
| Time | Temp. | Humidity | Pressure | Rain* | Wind** | Luminosity | Snow |
|---|---|---|---|---|---|---|---|
| 1777949246 | 3.89° C | 89% | 1015.4 hPa | 0.51 mm | - | 0 W/m² | - |
| 1777948943 | 3.89° C | 90% | 1015.4 hPa | 0 mm | - | 0 W/m² | - |
| 1777948640 | 3.89° C | 88% | 1015.2 hPa | 0 mm | - | 0 W/m² | - |
| 1777948338 | 3.89° C | 90% | 1014.9 hPa | 0 mm | - | 0 W/m² | - |
| 1777948035 | 3.89° C | 90% | 1015.2 hPa | 0 mm | - | 0 W/m² | - |
| 1777947732 | 3.89° C | 91% | 1015 hPa | 0 mm | - | 0 W/m² | - |
| 1777947428 | 3.89° C | 92% | 1014.8 hPa | 0 mm | - | 0 W/m² | - |
| 1777947126 | 3.89° C | 92% | 1014.8 hPa | 0 mm | - | 0 W/m² | - |
| 1777946821 | 3.89° C | 92% | 1014.7 hPa | 0 mm | - | 0 W/m² | - |
| 1777946517 | 3.89° C | 90% | 1014.5 hPa | 0 mm | - | 0 W/m² | - |
| 1777946215 | 3.89° C | 90% | 1014.4 hPa | 0 mm | - | 1 W/m² | - |
| 1777945911 | 3.89° C | 88% | 1014.5 hPa | 0 mm | - | 1 W/m² | - |
| 1777945608 | 3.89° C | 87% | 1014.1 hPa | 0 mm | - | 3 W/m² | - |
| 1777945305 | 3.89° C | 88% | 1014.7 hPa | 0 mm | - | 5 W/m² | - |
| 1777945002 | 3.89° C | 86% | 1014.4 hPa | 0 mm | - | 8 W/m² | - |
| 1777944699 | 4.44° C | 87% | 1014.4 hPa | 0 mm | - | 10 W/m² | - |
| 1777944398 | 4.44° C | 88% | 1014.8 hPa | 0 mm | - | 15 W/m² | - |
| 1777944094 | 4.44° C | 89% | 1014.7 hPa | 0 mm | - | 18 W/m² | - |
| 1777943790 | 4.44° C | 90% | 1015 hPa | 0 mm | - | 21 W/m² | - |
| 1777943488 | 4.44° C | 90% | 1015 hPa | 0 mm | - | 31 W/m² | - |
| 1777943188 | 5° C | 90% | 1014.7 hPa | 0 mm | - | 33 W/m² | - |
| 1777942885 | 5° C | 90% | 1014.9 hPa | 0 mm | - | 42 W/m² | - |
| 1777942581 | 5° C | 88% | 1014.7 hPa | 0 mm | - | 54 W/m² | - |
| 1777942278 | 5° C | 88% | 1014.7 hPa | 0 mm | - | 56 W/m² | - |
| 1777941975 | 5° C | 86% | 1014.7 hPa | 0 mm | - | 69 W/m² | - |
* Rain latest hour (hover to see other rain measurements)
** Current wind speed in m/s (hover to see current wind gust speed)